FW7828 Weather Reports


time (UTC)temp
F
wind
direction
speed
knots
gust
knots
rain 1hr
in
rain 24hr
in
rain mn
in
humidity
%
barometer
mb
20260903121543 78 322 0.0 0.0 0.00 0.00 0.00 93 1016.4
20260903121039 78 172 0.0 0.0 0.00 0.00 0.00 94 1016.5
20260903120537 78 15 0.0 0.0 0.00 0.00 0.00 94 1016.4
20260903120032 78 312 0.0 0.9 0.00 0.00 0.00 95 1016.4
20260903115531 78 346 0.0 0.0 0.00 0.00 0.00 95 1016.4
20260903115026 78 295 0.0 0.0 0.00 0.00 0.00 95 1016.3
20260903114521 77 327 0.0 0.0 0.00 0.00 0.00 95 1016.3
20260903114017 77 335 0.0 0.0 0.00 0.00 0.00 95 1016.1
20260903113512 77 315 0.0 0.0 0.00 0.00 0.00 95 1016.3
20260903113008 77 279 0.0 0.0 0.00 0.00 0.00 95 1016.1
20260903112504 77 286 0.0 0.0 0.00 0.00 0.00 95 1015.9
20260903112003 77 280 0.0 0.0 0.00 0.00 0.00 95 1016.0
20260903111457 77 276 0.0 0.0 0.00 0.00 0.00 95 1015.8
20260903110954 77 337 0.0 0.0 0.00 0.00 0.00 95 1015.9
20260903110449 77 324 0.0 0.0 0.00 0.00 0.00 95 1015.8
20260903105943 77 274 0.0 0.0 0.00 0.00 0.00 95 1015.6
20260903105438 77 342 0.0 0.0 0.00 0.00 0.00 95 1015.7
20260903104938 77 338 0.0 0.0 0.00 0.00 0.00 95 1015.5
20260903104437 77 312 0.0 0.0 0.00 0.00 0.00 95 1015.3
20260903103935 77 338 0.0 0.0 0.00 0.00 0.00 95 1015.2
20260903103430 77 274 0.0 0.0 0.00 0.00 0.00 95 1015.5
20260903102926 77 233 0.0 0.0 0.00 0.00 0.00 96 1015.3
20260903102421 77 335 0.0 0.0 0.00 0.00 0.00 96 1015.3
20260903101920 77 274 0.0 0.0 0.00 0.00 0.00 96 1015.3
20260903101415 77 318 0.0 0.0 0.00 0.00 0.00 96 1015.5
20260903100910 77 297 0.0 0.0 0.00 0.00 0.00 96 1015.3
20260903100405 77 344 0.0 0.0 0.00 0.00 0.00 96 1015.3
20260903095902 77 8 0.0 0.0 0.00 0.00 0.00 96 1015.4
20260903095357 77 242 0.0 0.0 0.00 0.00 0.00 96 1015.2
20260903094852 77 264 0.0 0.0 0.00 0.00 0.00 96 1015.1
20260903094351 76 304 0.0 0.0 0.00 0.00 0.00 96 1015.3
20260903093847 77 10 0.0 0.0 0.00 0.00 0.00 96 1015.2
20260903093343 76 325 0.9 0.9 0.00 0.00 0.00 96 1015.2
20260903092838 76 255 0.9 0.9 0.00 0.00 0.00 96 1015.1
20260903092332 76 23 0.0 0.0 0.00 0.00 0.00 96 1015.0
20260903091831 76 359 0.0 0.0 0.00 0.00 0.00 96 1015.4
20260903091325 76 356 0.0 0.0 0.00 0.00 0.00 96 1015.2
20260903090820 76 336 0.0 0.0 0.00 0.00 0.00 96 1015.2
20260903090321 76 344 0.0 0.0 0.00 0.00 0.00 96 1015.1
20260903085819 76 344 0.0 0.0 0.00 0.00 0.00 96 1014.9
20260903085313 76 345 0.0 0.0 0.00 0.00 0.00 96 1015.1
20260903084812 76 347 0.0 0.0 0.00 0.00 0.00 96 1014.9
20260903084311 76 347 0.0 0.0 0.00 0.00 0.00 96 1015.1
20260903083807 76 347 0.0 0.0 0.00 0.00 0.00 96 1015.0
20260903083302 76 340 0.0 0.0 0.00 0.00 0.00 96 1014.7
20260903082801 76 336 0.0 0.0 0.00 0.00 0.00 96 1015.0
20260903082257 76 347 0.0 0.0 0.00 0.00 0.00 96 1014.9
20260903081756 76 344 0.0 0.0 0.00 0.00 0.00 96 1014.9
20260903081252 76 355 0.0 0.0 0.00 0.00 0.00 96 1014.8
20260903080748 77 352 0.0 0.0 0.00 0.00 0.00 96 1014.9
20260903080246 77 332 0.0 0.0 0.00 0.00 0.00 96 1014.8
20260903075745 77 332 0.0 0.0 0.00 0.00 0.00 96 1015.2
20260903075240 77 283 0.0 0.0 0.00 0.00 0.00 96 1014.9
20260903074739 77 347 0.0 0.0 0.00 0.00 0.00 96 1015.1
20260903074234 77 313 0.0 0.0 0.00 0.00 0.00 96 1015.0
20260903073730 77 351 0.0 0.0 0.00 0.00 0.00 96 1015.0
20260903073225 77 334 0.0 0.0 0.00 0.00 0.00 96 1015.1
20260903072721 77 335 0.0 0.0 0.00 0.00 0.00 96 1014.9
20260903072217 77 341 0.0 0.0 0.00 0.00 0.00 96 1015.2
20260903071713 77 341 0.0 0.0 0.00 0.00 0.00 96 1014.8
20260903071209 77 341 0.0 0.0 0.00 0.00 0.00 96 1015.0
20260903070708 77 341 0.0 0.0 0.00 0.00 0.00 96 1015.3
20260903070204 77 349 0.0 0.0 0.00 0.00 0.00 96 1015.2
20260903065659 77 337 0.0 0.0 0.00 0.00 0.00 96 1015.2
20260903065153 77 340 0.0 0.0 0.00 0.00 0.00 96 1015.0
20260903064652 77 353 0.0 0.0 0.00 0.00 0.00 96 1015.1
20260903064148 77 341 0.0 0.0 0.00 0.00 0.00 96 1015.1
20260903063643 78 0 0.0 0.0 0.00 0.00 0.00 96 1015.1
20260903063138 77 324 0.0 0.0 0.00 0.00 0.00 96 1015.0
20260903062634 78 2 0.0 0.0 0.00 0.00 0.00 96 1015.1
20260903062129 78 357 0.0 0.0 0.00 0.00 0.00 96 1015.3
20260903061624 78 358 0.0 0.0 0.00 0.00 0.00 96 1015.1
20260903061123 78 22 0.0 0.0 0.00 0.00 0.00 96 1015.1
20260903060619 78 26 0.0 0.0 0.00 0.00 0.00 96 1015.2
20260903060114 78 3 0.0 0.0 0.00 0.00 0.00 96 1014.9
20260903055611 78 315 0.0 0.0 0.00 0.00 0.00 96 1015.3
20260903055110 78 25 0.0 0.0 0.00 0.00 0.00 96 1015.2
20260903054605 78 25 0.0 0.0 0.00 0.00 0.00 96 1015.1
20260903054101 78 25 0.0 0.0 0.00 0.00 0.00 96 1015.3
20260903053556 78 25 0.0 0.0 0.00 0.00 0.00 96 1015.3
20260903053052 78 25 0.0 0.0 0.00 0.00 0.00 96 1015.4
20260903052548 78 25 0.0 0.0 0.00 0.00 0.00 96 1015.0
20260903052043 78 27 0.0 0.0 0.00 0.00 0.00 96 1015.4
20260903051543 78 31 0.0 0.0 0.00 0.00 0.00 96 1015.3
20260903051039 78 31 0.0 0.0 0.00 0.00 0.00 96 1015.5
20260903050538 78 31 0.0 0.0 0.00 0.00 0.00 96 1015.5
20260903050033 78 31 0.0 0.0 0.00 0.00 0.00 96 1015.3
20260903045532 79 31 0.0 0.0 0.00 0.00 0.00 96 1015.4
20260903045030 79 3 0.0 0.0 0.00 0.00 0.00 96 1015.4
20260903044525 79 3 0.0 0.0 0.00 0.00 0.00 96 1015.5
20260903044020 79 1 0.0 0.0 0.00 0.00 0.00 96 1015.7
20260903043516 79 1 0.0 0.0 0.00 0.00 0.00 96 1015.5
20260903043015 79 0 0.0 0.0 0.00 0.00 0.00 96 1015.7
20260903042510 79 12 0.0 0.0 0.00 0.00 0.00 96 1015.5
20260903042006 79 12 0.0 0.0 0.00 0.00 0.00 95 1015.5
20260903041503 79 12 0.0 0.0 0.00 0.00 0.00 95 1015.6
20260903040957 80 12 0.0 0.0 0.00 0.00 0.00 95 1015.4
20260903040456 79 12 0.0 0.0 0.00 0.00 0.00 95 1015.5
20260903035953 80 12 0.0 0.0 0.00 0.00 0.00 95 1015.4
20260903035448 80 12 0.0 0.0 0.00 0.00 0.00 95 1015.4
20260903034943 80 12 0.0 0.0 0.00 0.00 0.00 95 1015.2
20260903034438 80 12 0.0 0.0 0.00 0.00 0.00 95 1015.4
20260903033933 80 12 0.0 0.0 0.00 0.00 0.00 95 1015.4
20260903033428 80 12 0.0 0.0 0.00 0.00 0.00 95 1015.6
20260903032923 80 12 0.0 0.0 0.00 0.00 0.00 95 1015.6
20260903032419 80 22 0.0 0.0 0.00 0.00 0.00 95 1015.2
20260903031914 80 21 0.0 0.0 0.00 0.00 0.00 95 1015.3
20260903031413 80 21 0.0 0.0 0.00 0.00 0.00 95 1015.1
20260903030909 80 21 0.0 0.0 0.00 0.00 0.00 95 1015.3
20260903030405 80 30 0.0 0.0 0.00 0.00 0.00 95 1015.4
20260903025900 80 4 0.0 0.0 0.00 0.00 0.00 95 1015.4
20260903025355 80 4 0.0 0.0 0.00 0.00 0.00 95 1015.3
20260903024855 80 4 0.0 0.0 0.00 0.00 0.00 95 1015.4
20260903024350 80 357 0.0 0.0 0.00 0.00 0.00 95 1015.6
20260903023845 80 356 0.0 0.0 0.00 0.00 0.00 94 1015.5
20260903023341 80 24 0.0 0.0 0.00 0.00 0.00 94 1015.6
20260903022836 80 24 0.0 0.0 0.00 0.00 0.00 94 1015.6
20260903022335 80 24 0.0 0.0 0.00 0.00 0.00 94 1015.9
20260903021834 80 5 0.0 0.0 0.00 0.00 0.00 94 1015.8
20260903021330 80 335 0.0 0.0 0.00 0.00 0.00 94 1016.1
20260903020829 80 13 0.0 0.0 0.00 0.00 0.00 94 1016.1
20260903020324 80 17 0.0 0.0 0.00 0.00 0.00 94 1016.0
20260903015819 80 17 0.0 0.0 0.00 0.00 0.00 94 1016.0
20260903015315 80 17 0.0 0.0 0.00 0.00 0.00 93 1016.0
20260903014810 80 17 0.0 0.0 0.00 0.00 0.00 93 1015.8
20260903014310 81 16 0.0 0.0 0.00 0.00 0.00 93 1015.7
20260903013805 81 70 0.0 0.0 0.00 0.00 0.00 93 1015.9
20260903013304 81 352 0.0 0.0 0.00 0.00 0.00 93 1015.7
20260903012803 81 349 0.0 0.0 0.00 0.00 0.00 93 1015.9
20260903012258 81 48 0.0 0.0 0.00 0.00 0.00 92 1015.7
20260903011757 81 25 0.0 0.0 0.00 0.00 0.00 92 1015.8
20260903011256 81 21 0.0 0.0 0.00 0.00 0.00 92 1015.8
20260903010752 81 21 0.0 0.0 0.00 0.00 0.00 92 1015.8
20260903010247 81 325 0.0 0.0 0.00 0.00 0.00 92 1015.3
20260903005746 81 100 0.0 0.0 0.00 0.00 0.00 92 1014.9
20260903005241 82 288 0.0 0.0 0.00 0.00 0.00 91 1014.9
20260903004737 82 14 0.0 0.0 0.00 0.00 0.00 91 1014.8
20260903004232 82 14 0.0 0.0 0.00 0.00 0.00 91 1014.6
20260903003727 82 23 0.0 0.0 0.00 0.00 0.00 90 1014.7
20260903003222 82 9 0.0 0.0 0.00 0.00 0.00 90 1014.9
20260903002717 82 303 0.0 0.0 0.00 0.00 0.00 90 1014.9
20260903002211 82 18 0.0 0.0 0.00 0.00 0.00 89 1015.0
20260903001706 83 43 0.0 0.0 0.00 0.00 0.00 89 1014.9
20260903001201 83 80 0.0 0.0 0.00 0.00 0.00 88 1015.4
20260903000656 83 42 0.0 0.0 0.00 0.00 0.00 89 1015.4
20260903000155 83 29 0.0 0.0 0.00 0.00 0.00 89 1015.2
20260902235654 83 41 0.0 0.0 0.00 0.00 0.00 89 1015.3
20260902235144 83 55 0.0 0.0 0.00 0.00 0.00 89 1015.6
20260902234644 84 13 0.9 0.9 0.00 0.00 0.00 89 1015.8
20260902234142 84 52 0.0 0.0 0.00 0.00 0.00 89 1015.5
20260902233638 84 36 0.0 0.9 0.00 0.00 0.00 88 1015.6
20260902233137 84 79 0.9 1.7 0.00 0.00 0.00 88 1015.6
20260902232636 84 94 0.9 1.7 0.00 0.00 0.00 88 1015.7
20260902232136 85 80 0.0 0.0 0.00 0.00 0.00 88 1015.9
20260902231636 85 92 0.9 1.7 0.00 0.00 0.00 87 1016.2
20260902231130 85 100 0.9 1.7 0.00 0.00 0.00 88 1016.2
20260902230626 86 129 1.7 1.7 0.00 0.00 0.00 87 1016.2
20260902230124 86 123 1.7 1.7 0.00 0.00 0.00 85 1015.8
20260902225620 85 123 1.7 2.6 0.00 0.00 0.00 86 1015.8
20260902225119 85 80 0.0 0.0 0.00 0.00 0.00 86 1015.9
20260902224618 85 125 0.9 0.9 0.00 0.00 0.00 86 1015.9
20260902224114 85 87 0.9 0.9 0.00 0.00 0.00 87 1015.7
20260902223610 85 22 0.0 0.0 0.00 0.00 0.00 86 1015.7
20260902223109 85 13 1.7 1.7 0.00 0.00 0.00 86 1015.7
20260902222608 85 358 0.9 1.7 0.00 0.00 0.00 85 1015.8
20260902222107 85 76 1.7 2.6 0.00 0.00 0.00 85 1015.6
20260902221602 86 62 0.9 0.9 0.00 0.00 0.00 85 1015.5
20260902221101 86 54 0.0 0.0 0.00 0.00 0.00 85 1015.4
20260902220557 86 66 0.9 1.7 0.00 0.00 0.00 84 1015.7
20260902220052 86 76 0.9 1.7 0.00 0.00 0.00 84 1015.5
20260902215548 86 76 0.9 0.9 0.00 0.00 0.00 85 1015.3
20260902215043 86 82 0.9 0.9 0.00 0.00 0.00 85 1015.5
20260902214538 86 35 0.0 0.9 0.00 0.00 0.00 86 1015.6
20260902214037 86 23 0.9 0.9 0.00 0.00 0.00 85 1015.6
20260902213533 86 31 0.0 0.9 0.00 0.00 0.00 85 1015.7
20260902213032 86 25 0.9 0.9 0.00 0.00 0.00 85 1015.6
20260902212528 87 54 0.0 0.0 0.00 0.00 0.00 84 1015.6
20260902212023 87 54 0.0 0.9 0.00 0.00 0.00 82 1015.8
20260902211519 88 36 1.7 1.7 0.00 0.00 0.00 82 1015.5
20260902211015 88 92 1.7 1.7 0.00 0.00 0.00 81 1015.2
20260902210514 89 52 0.0 0.0 0.00 0.00 0.00 82 1015.3
20260902210014 89 49 0.9 0.9 0.00 0.00 0.00 81 1015.2
20260902205508 89 79 0.9 1.7 0.00 0.00 0.00 80 1015.1
20260902205004 89 103 2.6 2.6 0.00 0.00 0.00 79 1014.8
20260902204503 89 84 2.6 4.3 0.00 0.00 0.00 79 1014.6
20260902203958 90 75 1.7 1.7 0.00 0.00 0.00 79 1014.5
20260902203454 92 90 1.7 1.7 0.00 0.00 0.00 76 1014.6
20260902202952 92 134 1.7 1.7 0.00 0.00 0.00 74 1014.6
20260902202449 92 92 0.0 0.0 0.00 0.00 0.00 71 1014.6
20260902201945 93 85 0.9 0.9 0.00 0.00 0.00 74 1014.8
20260902201440 93 18 0.0 0.9 0.00 0.00 0.00 73 1014.7
20260902200940 93 80 0.9 1.7 0.00 0.00 0.00 72 1014.7
20260902200435 93 71 0.9 0.9 0.00 0.00 0.00 73 1014.9
20260902195931 93 132 0.0 0.9 0.00 0.00 0.00 73 1014.9
20260902195426 92 145 0.9 0.9 0.00 0.00 0.00 75 1015.0
20260902194920 92 155 0.0 0.9 0.00 0.00 0.00 73 1015.0
20260902194420 93 152 0.9 0.9 0.00 0.00 0.00 73 1015.3
20260902193915 91 134 0.0 0.9 0.00 0.00 0.00 75 1015.2
20260902193411 91 150 0.0 0.9 0.00 0.00 0.00 75 1015.3
20260902192909 91 314 0.0 0.0 0.00 0.00 0.00 76 1015.4
20260902192409 91 150 0.0 0.0 0.00 0.00 0.00 76 1015.3
20260902191908 91 196 0.0 0.0 0.00 0.00 0.00 75 1015.2
20260902191358 92 143 0.0 0.9 0.00 0.00 0.00 74 1015.5
20260902190858 92 152 0.9 1.7 0.00 0.00 0.00 73 1015.6
20260902190353 92 113 1.7 1.7 0.00 0.00 0.00 72 1015.6
20260902185849 92 208 0.9 0.9 0.00 0.00 0.00 72 1015.6
20260902185345 93 245 0.9 0.9 0.00 0.00 0.00 72 1015.4
20260902184840 92 177 0.9 1.7 0.00 0.00 0.00 71 1015.6
20260902184335 93 122 0.9 0.9 0.00 0.00 0.00 75 1015.5
20260902183831 93 199 0.9 1.7 0.00 0.00 0.00 70 1015.5
20260902183327 93 176 0.9 0.9 0.00 0.00 0.00 70 1015.4
20260902182822 93 183 0.9 1.7 0.00 0.00 0.00 70 1015.7
20260902182319 92 183 1.7 1.7 0.00 0.00 0.00 70 1015.7
20260902181815 93 199 1.7 1.7 0.00 0.00 0.00 70 1015.7
20260902181310 93 122 1.7 1.7 0.00 0.00 0.00 69 1015.6
20260902180804 93 279 0.0 0.9 0.00 0.00 0.00 70 1015.5
20260902180300 91 297 0.9 0.9 0.00 0.00 0.00 73 1015.7
20260902175755 91 144 1.7 2.6 0.00 0.00 0.00 73 1015.6
20260902175250 91 169 1.7 1.7 0.00 0.00 0.00 74 1015.7
20260902174746 92 162 0.9 1.7 0.00 0.00 0.00 72 1015.7
20260902174242 92 126 0.0 0.9 0.00 0.00 0.00 74 1015.8
20260902173737 91 135 0.9 1.7 0.00 0.00 0.00 76 1015.7
20260902173237 91 156 0.9 1.7 0.00 0.00 0.00 76 1015.6
20260902172732 90 148 0.9 1.7 0.00 0.00 0.00 77 1015.7
20260902172232 90 156 1.7 1.7 0.00 0.00 0.00 76 1015.4
20260902171727 90 199 1.7 1.7 0.00 0.00 0.00 76 1016.0
20260902171222 90 19 0.0 0.9 0.00 0.00 0.00 76 1015.7
20260902170718 90 162 2.6 2.6 0.00 0.00 0.00 76 1015.8
20260902170213 90 175 1.7 1.7 0.00 0.00 0.00 77 1015.8
20260902165708 89 166 1.7 2.6 0.00 0.00 0.00 77 1015.8
20260902165202 89 164 1.7 1.7 0.00 0.00 0.00 76 1015.7
20260902164657 89 172 2.6 2.6 0.00 0.00 0.00 76 1015.9
20260902164156 90 151 2.6 2.6 0.00 0.00 0.00 76 1015.6
20260902163652 90 161 1.7 1.7 0.00 0.00 0.00 75 1015.9
20260902163151 90 165 1.7 1.7 0.00 0.00 0.00 74 1016.0
20260902162650 90 201 3.5 5.2 0.00 0.00 0.00 74 1016.0
20260902162144 90 158 1.7 1.7 0.00 0.00 0.00 73 1015.8
20260902161640 90 158 1.7 1.7 0.00 0.00 0.00 72 1016.1
20260902161136 90 171 0.9 0.9 0.00 0.00 0.00 71 1016.0
20260902160632 90 131 1.7 1.7 0.00 0.00 0.00 72 1016.0
20260902160127 90 174 2.6 2.6 0.00 0.00 0.00 73 1015.9
20260902155625 89 150 0.9 1.7 0.00 0.00 0.00 74 1016.2
20260902155124 89 131 0.9 0.9 0.00 0.00 0.00 73 1016.0
20260902154619 88 138 2.6 2.6 0.00 0.00 0.00 73 1016.1
20260902154114 88 175 0.9 0.9 0.00 0.00 0.00 73 1016.0
20260902153613 88 161 1.7 1.7 0.00 0.00 0.00 74 1016.1
20260902153108 86 223 0.9 0.9 0.00 0.00 0.00 77 1016.2
20260902152605 86 176 2.6 2.6 0.00 0.00 0.00 79 1016.1
20260902152100 85 113 1.7 2.6 0.00 0.00 0.00 80 1016.1
20260902151555 86 155 2.6 2.6 0.00 0.00 0.00 81 1016.2
20260902151055 85 91 1.7 2.6 0.00 0.00 0.00 80 1016.4
20260902150550 85 170 2.6 2.6 0.00 0.00 0.00 81 1016.1
20260902150046 85 177 2.6 2.6 0.00 0.00 0.00 81 1016.0
20260902145541 85 168 1.7 1.7 0.00 0.00 0.00 81 1015.8
20260902145040 84 68 0.9 0.9 0.00 0.00 0.00 81 1015.9
20260902144537 84 150 0.9 1.7 0.00 0.00 0.00 82 1015.9
20260902144038 83 213 0.9 0.9 0.00 0.00 0.00 84 1015.8
20260902143538 83 160 1.7 1.7 0.00 0.00 0.00 84 1015.9
20260902143034 83 185 1.7 2.6 0.00 0.00 0.00 84 1015.8
20260902142529 82 151 0.9 0.9 0.00 0.00 0.00 83 1015.8
20260902142025 82 165 0.0 0.9 0.00 0.00 0.00 84 1016.0
20260902141524 82 9 0.9 0.9 0.00 0.00 0.00 84 1016.0
20260902141020 82 196 0.9 1.7 0.00 0.00 0.00 85 1015.9
20260902140520 82 7 0.0 0.0 0.00 0.00 0.00 85 1015.7
20260902140015 82 157 2.6 2.6 0.00 0.00 0.00 85 1015.8
20260902135509 82 107 1.7 1.7 0.00 0.00 0.00 85 1015.9
20260902135009 82 178 0.9 0.9 0.00 0.00 0.00 85 1015.9
20260902134505 82 136 2.6 2.6 0.00 0.00 0.00 84 1015.9
20260902134000 83 1 0.0 0.9 0.00 0.00 0.00 84 1015.7
20260902133455 83 114 0.0 0.9 0.00 0.00 0.00 83 1015.8
20260902132949 83 141 0.0 0.9 0.00 0.00 0.00 82 1015.8
20260902132444 82 107 0.0 0.0 0.00 0.00 0.00 82 1015.9
20260902131939 82 318 0.9 0.9 0.00 0.00 0.00 84 1015.9
20260902131436 81 124 1.7 1.7 0.00 0.00 0.00 84 1016.1
20260902130935 81 167 1.7 2.6 0.00 0.00 0.00 84 1016.0
20260902130431 81 292 0.0 0.9 0.00 0.00 0.00 84 1015.9
20260902125926 81 172 0.9 1.7 0.00 0.00 0.00 84 1015.9
20260902125422 81 177 0.9 0.9 0.00 0.00 0.00 84 1015.8
20260902124918 80 8 0.0 0.9 0.00 0.00 0.00 85 1015.9
20260902124413 80 137 0.0 0.0 0.00 0.00 0.00 86 1015.8
20260902123908 80 195 0.0 0.9 0.00 0.00 0.00 86 1015.9
20260902123405 80 255 0.0 0.0 0.00 0.00 0.00 87 1015.9
20260902122903 79 24 0.0 0.0 0.00 0.00 0.00 87 1015.9
20260902122359 79 217 0.9 0.9 0.00 0.00 0.00 87 1016.1
20260902121854 79 149 0.9 0.9 0.00 0.00 0.00 88 1015.9